Regional Weather Roundup
Issued by NWS Sterling, VA

Home | Current Version | Previous Version | Graphics & Text | Print | Product List | Glossary On
Versions: 1 2 3 4 5 6 7 8 9 10 11 12 13 14 15 16 17 18 19 20 21 22 23 24 25 26 27 28 29 30 31 32 33 34 35 36 37 38 39 40 41 42 43 44 45 46 47 48 49 50
000
ASUS41 KLWX 261010
RWRLWX

REGIONAL WEATHER ROUNDUP
NATIONAL WEATHER SERVICE BALTIMORE MD/WASHINGTON DC
500 AM EST MON JAN 26 2015

Note: "FAIR" indicates few or no clouds below 12,000 feet
with no significant weather and/or obstructions to visibility.
 TC=TEMPERATURE CELSIUS

 * =Non NWS site. Station does not report precipitation (e.g. rain,
    snow, etc.), thunder, or fog.

DCZ001-MDZ009-015-VAZ040>042-051-053>054-261100-
WASHINGTON METRO

CITY           SKY/WX    TMP DP  RH WIND       PRES   REMARKS
WASHINGTON NAT LGT RAIN  41  36  81 E14       29.80F
DULLES         LGT RAIN  37  36  93 E7G16     29.76F
ANDREWS AFB    LGT RAIN  38  36  93 NE9       29.79F
FT BELVOIR     LGT RAIN  39  37  93 VRB3      29.79F
QUANTICO       LGT RAIN  40  35  83 NE8       29.79S
COLLEGE PARK*  CLOUDY    37  36  93 NE7       29.81S
LEESBURG*      LGT RAIN  37  37 100 E5        29.78F
MANASSAS*      CLOUDY    39  39 100 CALM      29.77F
GAITHERSBURG*  CLOUDY    36  30  80 E8        29.82F

$$

MDZ006>007-011-014-261100-
BALTIMORE METRO

CITY           SKY/WX    TMP DP  RH WIND       PRES   REMARKS
BWI AIRPORT    LGT SNOW  33  30  88 NE15      29.83F FOG     WCI  23
MD SCIENCE CTR   N/A     33  29  85 MISG      29.84S
MARTIN STATE   CLOUDY    34  30  86 NE12G18   29.88S WCI  25
ANNAPOLIS      LGT RAIN  38  32  79 NE10      29.83S
FORT MEADE*    CLOUDY    34  32  93 NE6       29.84F

$$

MDZ012-015-019>023-261100-
MARYLAND EASTERN SHORE

CITY           SKY/WX    TMP DP  RH WIND       PRES   REMARKS
OCEAN CITY     CLOUDY    42  37  82 NE6       29.82F
SALISBURY      CLOUDY    41  36  82 NE9       29.81F
BAY BRIDGE AP* DRIZZLE   37  32  81 E14       29.84S WCI  29
CAMBRIDGE*     CLOUDY    41  34  75 NE7       29.80F
EASTON*        CLOUDY    40  36  84 E10G17    29.86F

$$

MDZ017>025-261100-
SOUTHERN MARYLAND

CITY           SKY/WX    TMP DP  RH WIND       PRES   REMARKS
PATUXENT RIVER LGT RAIN  39  35  86 E9        29.79F
ST INIGOES     LGT RAIN  41  34  76 E6        29.78F
LEONARDTOWN*   CLOUDY    37  36  93 E5        29.79F

$$

MDZ003>005-261100-
NORTH CENTRAL MARYLAND

CITY           SKY/WX    TMP DP  RH WIND       PRES   REMARKS
FREDERICK*     LGT SNOW  34  32  93 N8        29.84S WCI  27
HAGERSTOWN APT LGT SNOW  32  29  88 NE13      29.78S FOG     WCI  22
WESTMINSTER*   FLURRIES  32  30  93 E10G16    29.79F WCI  24

$$

MDZ501>502-261100-
WESTERN MARYLAND

CITY           SKY/WX    TMP DP  RH WIND       PRES   REMARKS
OAKLAND*       FOG       30 N/A N/A E8        29.61F VSB 1   WCI  23
CUMBERLAND*      N/A     34  32  93 MISG        N/A

$$

VAZ025>031-261100-
SHENANDOAH VALLEY

CITY           SKY/WX    TMP DP  RH WIND       PRES   REMARKS
WINCHESTER*    LGT RAIN  36  32  87 NE5       29.75S
FRONT ROYAL*   CLOUDY    36  34  93 N5        29.72F
LURAY*         LGT RAIN  37  37 100 NE6       29.71S
NEW MARKET*    CLOUDY    35  34  96 N7        29.70F
STAUNTON*      LGT RAIN  36  34  91 CALM      29.70F
WAYNESBORO*    CLOUDY    37  35  93 E3        29.68F

$$

WVZ021-048>050-054>055-261100-
EASTERN WEST VIRGINIA PANHANDLE

CITY           SKY/WX    TMP DP  RH WIND       PRES   REMARKS
MARTINSBURG    LGT SNOW  34  31  88 N7        29.77S FOG
PETERSBURG*    LGT SNOW  34  34 100 NW3       29.72F VSB 1

$$

VAZ036>039-050-261100-
CENTRAL FOOTHILLS

CITY           SKY/WX    TMP DP  RH WIND       PRES   REMARKS
CHARLOTTESVILL LGT RAIN  37  35  92 NE5       29.72F
CULPEPER*      LGT RAIN  39  37  93 CALM      29.76S
ORANGE*        RAIN      36  36 100 CALM      29.75F
GORDONSVILLE*  CLOUDY    35  34  97 CALM      29.73F FOG
WARRENTON*     LGT RAIN  39  39 100 NE3       29.76S

$$

VAZ055>057-261100-
NORTH AND CENTRAL PIEDMONT

CITY           SKY/WX    TMP DP  RH WIND       PRES   REMARKS
FREDERICKSBRG* LGT RAIN  39  39 100 E3        29.76S
STAFFORD*      RAIN      38  32  79 CALM      29.81S

$$

NCZ024-NYZ072-PAZ021-071-VAZ022-071-261100-
OTHER REGIONAL OBSERVATIONS

CITY           SKY/WX    TMP DP  RH WIND       PRES   REMARKS
NEW YORK CITY  CLOUDY    25   6  44 NE12      30.03F WCI  14
PHILADELPHIA   FLURRIES  31  23  72 NE13G20   29.93F WCI  21
PITTSBURGH     LGT SNOW  29  28  96 N6        29.68F FOG
ROANOKE        MOCLDY    39  32  76 CALM      29.68F
RICHMOND       LGT RAIN  40  37  89 CALM      29.75F
RALEIGH        CLOUDY    40  34  79 S5        29.70F

$$

ANZ530>537-261100-
MARINE OBSERVATIONS

STATION/POSITION TIME  TEMP    WIND        PRES
                       AIR SEA DIR/SP/G
                 (UTC) (F)     (DEG/KT/KT) (MB)
THOMAS PT LIGHT  1000   38 37   70/ 12/ 13 1011.0F
BALT KEY BRIDGE  1000   34      50/ 15/ 17 1010.6F
COVE POINT       1000   39     120/  4/  5 1008.8S
LEWISETTA        1000   39 39  100/  7/  8 1008.1F
SOLOMONS ISLAND  1000      38                N/A
PINEY POINT      1000          110/  8/  8   N/A

$$




USA.gov is the U.S. government's official web portal to all federal, state and local government web resources and services.